Location: *
(45.1961°N, 1.9694°E)
Time: 07:47:59
(UTC+00:00)

MetOp-B - Pass Details

Date: 25 August 2019
Orbit: 819 x 822 km, 98.7° (Epoch: 19 September)

Event Time Altitude Azimuth Distance (km) Brightness Sun altitude
Exits shadow 20:47:46 31° 169° (S) 1,396 4.9 -20.2°
Maximum altitude 20:50:25 84° 255° (WSW) 831 4.1 -20.5°
Drops below altitude 10° 20:55:48 10° 345° (NNW) 2,426 7.4 -21.2°
Sets 20:58:10 0° 346° (NNW) 3,363 8.2 -21.5°
